Погода в Датте

Россия / Хабаровский край     49°16′53″N   140°21′57″E
темп.,
°C
ветер,
м/с
пор.,
м/с
влажн.,
%
обл.,
%
осадки,
мм/ч
давл.,
гПа
погр.,
м
27 февраля, сб
сб2701:00−17зсз238698 0.0 102845
04:00−20зсз338770 0.0 102968
07:00−21зсз34860 0.0 103076
10:00−15зсз35800 0.0 1030216
13:00−8зсз13730 0.0 1029416
16:00−6юв23746 0.0 1026510
19:00−13ю119573 0.0 102621
22:00−12ююз119386 0.0 102421
28 февраля, вс
вс2801:00−11ю1192100 0.0 102021
04:00−9з1195100 0.8 101522
07:00−9зюз1187100 0.0 101321
10:00−3юз2975100 0.0 1012826
13:000с2478100 0.0 1011694
16:000с138399 0.0 1011491
19:00−6зсз2378100 0.0 101353
22:00−11зсз2679100 0.0 1016182
1 марта, пн
пн101:00−13зсз3781100 0.0 1017194
04:00−14з41078100 0.0 1020278
07:00−17з47785 0.0 1021125
10:00−14сз49682 0.0 1022642
13:00−11сз466541 0.0 1022951
16:00−11з236727 0.0 1023996
19:00−15зсз388598 0.1 1026302
22:00−17зсз5137074 0.1 1027602
2 марта, вт
вт201:00−18з513700 0.0 1027464
04:00−20з411740 0.0 1028280
07:00−23з36800 0.0 1029156
10:00−18зсз37730 0.0 1028478
13:00−15сз35620 0.0 10271071
16:00−13св236032 0.0 10261205
19:00−18ссз2280100 0.0 102721
22:00−22зсз238063 0.0 102921
3 марта, ср
ср301:00−24зсз23810 0.0 102727
04:00−25зсз23830 0.0 102732
07:00−26зсз33840 0.0 102741
10:00−18зсз24770 0.0 1025272
13:00−11з37640 0.0 10231151
16:00−8зюз376421 0.0 10221383
19:00−14ю229061 0.0 102121
22:00−14юз128979 0.0 101821